Location: Bay Shore Mobile Home Park
(38.5762°N, 75.0841°W)
Time: 09:18:58
(UTC+00:00)

Cosmos 1140 Rocket - Pass Details

Date: 15 November 2025
Orbit: 740 x 761 km, 74.1° (Epoch: 05 December)

Event Time Altitude Azimuth Distance (km) Brightness Sun altitude
Rises 22:13:13 0° 198° (SSW) 3,199 7.3 -5.6°
Reaches altitude 10° 22:15:34 10° 199° (SSW) 2,275 6.5 -6.0°
Maximum altitude 22:20:44 85° 287° (WNW) 761 3.6 -7.0°
Drops below altitude 10° 22:25:55 10° 17° (NNE) 2,277 5.6 -8.0°
Sets 22:28:17 0° 18° (NNE) 3,202 6.4 -8.4°
